Time,TemperatureF,DewpointF,PressureIn,WindDirection,WindDirectionDegrees,WindSpeedMPH,WindSpeedGustMPH,Humidity,HourlyPrecipIn,Conditions,Clouds,dailyrainin,SoftwareType,DateUTC
2013-04-28 00:02:00,50.0,47.2,30.11,SE,133,0.0,0.0,90,0.00,,,0.00,Wunderground v.1.15,2013-04-28 07:02:00,
2013-04-28 00:08:00,50.0,47.2,30.11,SE,134,0.0,0.0,90,0.00,,,0.00,Wunderground v.1.15,2013-04-28 07:08:00,
2013-04-28 00:13:00,49.8,47.0,30.11,SE,133,0.0,0.0,90,0.00,,,0.00,Wunderground v.1.15,2013-04-28 07:13:00,
2013-04-28 00:19:00,49.8,47.0,30.11,SE,133,0.0,0.0,90,0.00,,,0.00,Wunderground v.1.15,2013-04-28 07:19:00,
2013-04-28 00:25:00,49.6,46.8,30.11,SE,134,0.0,0.0,90,0.00,,,0.00,Wunderground v.1.15,2013-04-28 07:25:00,
2013-04-28 00:31:00,49.5,46.7,30.11,SE,133,0.0,0.0,90,0.00,,,0.00,Wunderground v.1.15,2013-04-28 07:31:00,
2013-04-28 00:36:00,49.4,46.6,30.11,SE,133,0.0,0.0,90,0.00,,,0.00,Wunderground v.1.15,2013-04-28 07:36:00,
2013-04-28 00:42:00,49.3,46.5,30.11,SE,133,0.0,0.0,90,0.00,,,0.00,Wunderground v.1.15,2013-04-28 07:42:00,
2013-04-28 00:48:00,49.3,46.8,30.11,SE,133,0.0,0.0,91,0.00,,,0.00,Wunderground v.1.15,2013-04-28 07:48:00,
2013-04-28 00:54:00,49.3,46.8,30.11,SE,132,0.0,0.0,91,0.00,,,0.00,Wunderground v.1.15,2013-04-28 07:54:00,
2013-04-28 00:59:00,49.1,46.6,30.11,SE,133,0.0,0.0,91,0.00,,,0.00,Wunderground v.1.15,2013-04-28 07:59:00,
2013-04-28 01:05:00,48.8,46.0,30.11,SE,134,0.0,0.0,90,0.00,,,0.00,Wunderground v.1.15,2013-04-28 08:05:00,
2013-04-28 01:11:00,48.8,46.3,30.11,SE,133,0.0,0.0,91,0.00,,,0.00,Wunderground v.1.15,2013-04-28 08:11:00,
2013-04-28 01:17:00,48.8,46.3,30.11,SE,133,0.0,0.0,91,0.00,,,0.00,Wunderground v.1.15,2013-04-28 08:17:00,
2013-04-28 01:23:00,48.9,46.4,30.10,SE,132,0.0,0.0,91,0.00,,,0.00,Wunderground v.1.15,2013-04-28 08:23:00,
2013-04-28 01:29:00,49.2,47.0,30.10,SE,133,0.0,0.0,92,0.00,,,0.00,Wunderground v.1.15,2013-04-28 08:29:00,
2013-04-28 01:35:00,49.0,46.5,30.11,SE,134,0.0,0.0,91,0.00,,,0.00,Wunderground v.1.15,2013-04-28 08:35:00,
2013-04-28 01:41:00,48.6,46.1,30.10,SE,133,0.0,0.0,91,0.00,,,0.00,Wunderground v.1.15,2013-04-28 08:41:00,
2013-04-28 01:47:00,48.4,45.9,30.10,SE,134,0.0,0.0,91,0.00,,,0.00,Wunderground v.1.15,2013-04-28 08:47:00,
2013-04-28 01:52:00,48.8,46.9,30.10,SE,133,0.0,0.0,93,0.00,,,0.00,Wunderground v.1.15,2013-04-28 08:52:00,
2013-04-28 01:58:00,49.1,47.2,30.10,SE,133,0.0,0.0,93,0.00,,,0.00,Wunderground v.1.15,2013-04-28 08:58:00,
2013-04-28 02:03:00,49.3,47.4,30.10,SE,133,0.0,0.0,93,0.00,,,0.00,Wunderground v.1.15,2013-04-28 09:03:00,
2013-04-28 02:08:00,49.5,47.6,30.09,SE,134,0.0,0.0,93,0.00,,,0.00,Wunderground v.1.15,2013-04-28 09:08:00,
2013-04-28 02:13:00,49.5,47.3,30.09,SE,134,0.0,0.0,92,0.00,,,0.00,Wunderground v.1.15,2013-04-28 09:13:00,
2013-04-28 02:18:00,49.4,47.2,30.09,SE,133,0.0,0.0,92,0.00,,,0.00,Wunderground v.1.15,2013-04-28 09:18:00,
2013-04-28 02:23:00,49.1,46.6,30.09,SE,133,0.0,0.0,91,0.00,,,0.00,Wunderground v.1.15,2013-04-28 09:23:00,
2013-04-28 02:28:00,48.7,46.2,30.09,SE,133,0.0,0.0,91,0.00,,,0.00,Wunderground v.1.15,2013-04-28 09:28:00,
2013-04-28 02:33:00,48.3,45.8,30.09,SE,133,0.0,0.0,91,0.00,,,0.00,Wunderground v.1.15,2013-04-28 09:33:00,
2013-04-28 02:38:00,48.0,45.5,30.08,SE,132,0.0,0.0,91,0.00,,,0.00,Wunderground v.1.15,2013-04-28 09:38:00,
2013-04-28 02:43:00,47.9,45.7,30.08,SE,132,0.0,0.0,92,0.00,,,0.00,Wunderground v.1.15,2013-04-28 09:43:00,
2013-04-28 02:48:00,48.0,46.1,30.08,SE,133,0.0,0.0,93,0.00,,,0.00,Wunderground v.1.15,2013-04-28 09:48:00,
2013-04-28 02:53:00,47.9,45.7,30.08,SE,132,0.0,0.0,92,0.00,,,0.00,Wunderground v.1.15,2013-04-28 09:53:00,
2013-04-28 02:58:00,47.7,45.5,30.08,SE,133,0.0,0.0,92,0.00,,,0.00,Wunderground v.1.15,2013-04-28 09:58:00,
2013-04-28 03:03:00,47.5,45.3,30.08,SE,133,0.0,0.0,92,0.00,,,0.00,Wunderground v.1.15,2013-04-28 10:03:00,
2013-04-28 03:08:00,47.4,45.2,30.08,SE,133,0.0,0.0,92,0.00,,,0.00,Wunderground v.1.15,2013-04-28 10:08:00,
2013-04-28 03:13:00,47.2,45.0,30.08,SE,134,0.0,0.0,92,0.00,,,0.00,Wunderground v.1.15,2013-04-28 10:13:00,
2013-04-28 03:18:00,47.1,44.9,30.08,SE,134,0.0,0.0,92,0.00,,,0.00,Wunderground v.1.15,2013-04-28 10:18:00,
2013-04-28 03:23:00,47.1,44.9,30.08,SE,133,0.0,0.0,92,0.00,,,0.00,Wunderground v.1.15,2013-04-28 10:23:00,
2013-04-28 03:28:00,47.0,45.1,30.08,SE,133,0.0,0.0,93,0.00,,,0.00,Wunderground v.1.15,2013-04-28 10:28:00,
2013-04-28 03:33:00,47.0,45.1,30.08,SE,133,0.0,0.0,93,0.00,,,0.00,Wunderground v.1.15,2013-04-28 10:33:00,
2013-04-28 03:38:00,46.9,45.0,30.08,SE,134,0.0,0.0,93,0.00,,,0.00,Wunderground v.1.15,2013-04-28 10:38:00,
2013-04-28 03:43:00,46.9,45.0,30.08,SE,133,0.0,0.0,93,0.00,,,0.00,Wunderground v.1.15,2013-04-28 10:43:00,
2013-04-28 03:48:00,47.4,45.8,30.08,SE,136,0.0,1.0,94,0.00,,,0.00,Wunderground v.1.15,2013-04-28 10:48:00,
2013-04-28 03:53:00,48.0,46.6,30.07,SE,137,0.0,0.0,95,0.00,,,0.00,Wunderground v.1.15,2013-04-28 10:53:00,
2013-04-28 03:58:00,48.4,47.0,30.07,SE,137,0.0,0.0,95,0.00,,,0.00,Wunderground v.1.15,2013-04-28 10:58:00,
2013-04-28 04:03:00,48.7,47.3,30.07,SE,136,0.0,0.0,95,0.00,,,0.00,Wunderground v.1.15,2013-04-28 11:03:00,
2013-04-28 04:08:00,49.0,47.6,30.07,SSE,167,2.0,2.0,95,0.00,,,0.00,Wunderground v.1.15,2013-04-28 11:08:00,
2013-04-28 04:13:00,49.0,47.3,30.07,SSE,167,0.0,0.0,94,0.00,,,0.00,Wunderground v.1.15,2013-04-28 11:13:00,
2013-04-28 04:18:00,49.1,47.4,30.07,South,172,0.0,2.0,94,0.00,,,0.00,Wunderground v.1.15,2013-04-28 11:18:00,
2013-04-28 04:23:00,49.5,48.1,30.07,South,171,0.0,2.0,95,0.00,,,0.00,Wunderground v.1.15,2013-04-28 11:23:00,
2013-04-28 04:28:00,49.8,48.4,30.07,South,172,0.0,2.0,95,0.00,,,0.00,Wunderground v.1.15,2013-04-28 11:28:00,
2013-04-28 04:33:00,50.0,48.6,30.08,South,172,0.0,2.0,95,0.00,,,0.00,Wunderground v.1.15,2013-04-28 11:33:00,
2013-04-28 04:38:00,50.2,48.5,30.07,South,171,0.0,2.0,94,0.00,,,0.00,Wunderground v.1.15,2013-04-28 11:38:00,
2013-04-28 04:43:00,50.2,48.5,30.07,South,173,0.0,2.0,94,0.00,,,0.00,Wunderground v.1.15,2013-04-28 11:43:00,
2013-04-28 04:48:00,50.3,48.6,30.07,South,171,0.0,2.0,94,0.00,,,0.00,Wunderground v.1.15,2013-04-28 11:48:00,
2013-04-28 04:53:00,50.3,48.6,30.07,South,172,0.0,0.0,94,0.00,,,0.00,Wunderground v.1.15,2013-04-28 11:53:00,
2013-04-28 04:58:00,50.3,48.6,30.07,South,171,0.0,3.0,94,0.00,,,0.00,Wunderground v.1.15,2013-04-28 11:58:00,
2013-04-28 05:03:00,50.2,48.5,30.07,South,172,0.0,0.0,94,0.00,,,0.00,Wunderground v.1.15,2013-04-28 12:03:00,
2013-04-28 05:08:00,50.2,48.5,30.07,South,172,0.0,1.0,94,0.00,,,0.00,Wunderground v.1.15,2013-04-28 12:08:00,
2013-04-28 05:13:00,50.3,48.6,30.07,South,172,2.0,3.0,94,0.00,,,0.00,Wunderground v.1.15,2013-04-28 12:13:00,
2013-04-28 05:18:00,50.2,48.5,30.07,South,173,0.0,3.0,94,0.00,,,0.00,Wunderground v.1.15,2013-04-28 12:18:00,
2013-04-28 05:23:00,50.2,48.5,30.07,South,172,0.0,4.0,94,0.00,,,0.00,Wunderground v.1.15,2013-04-28 12:23:00,
2013-04-28 05:28:00,50.2,48.5,30.07,South,181,3.0,4.0,94,0.00,,,0.00,Wunderground v.1.15,2013-04-28 12:28:00,
2013-04-28 05:33:00,50.1,48.4,30.07,South,188,0.0,2.0,94,0.00,,,0.00,Wunderground v.1.15,2013-04-28 12:33:00,
2013-04-28 05:38:00,49.9,48.2,30.06,SSW,198,0.0,4.0,94,0.00,,,0.00,Wunderground v.1.15,2013-04-28 12:38:00,
2013-04-28 05:43:00,49.8,48.1,30.06,SSW,199,0.0,2.0,94,0.00,,,0.00,Wunderground v.1.15,2013-04-28 12:43:00,
2013-04-28 05:48:00,49.7,48.0,30.06,SSW,199,0.0,2.0,94,0.00,,,0.00,Wunderground v.1.15,2013-04-28 12:48:00,
2013-04-28 05:53:00,49.5,47.8,30.06,SSW,200,2.0,3.0,94,0.00,,,0.00,Wunderground v.1.15,2013-04-28 12:53:00,
2013-04-28 05:59:00,49.3,47.9,30.06,WSW,240,0.0,3.0,95,0.00,,,0.00,Wunderground v.1.15,2013-04-28 12:59:00,
2013-04-28 06:04:00,49.0,47.6,30.06,WSW,244,0.0,3.0,95,0.00,,,0.00,Wunderground v.1.15,2013-04-28 13:04:00,
2013-04-28 06:09:00,49.0,47.6,30.07,WSW,246,0.0,3.0,95,0.00,,,0.00,Wunderground v.1.15,2013-04-28 13:09:00,
2013-04-28 06:14:00,48.9,47.5,30.06,WSW,248,0.0,3.0,95,0.00,,,0.00,Wunderground v.1.15,2013-04-28 13:14:00,
2013-04-28 06:19:00,49.0,47.6,30.07,WSW,248,3.0,3.0,95,0.00,,,0.00,Wunderground v.1.15,2013-04-28 13:19:00,
2013-04-28 06:24:00,49.0,47.6,30.07,WSW,248,2.0,3.0,95,0.00,,,0.00,Wunderground v.1.15,2013-04-28 13:24:00,
2013-04-28 06:29:00,48.9,47.5,30.07,North,360,0.0,3.0,95,0.00,,,0.00,Wunderground v.1.15,2013-04-28 13:29:00,
2013-04-28 06:34:00,48.9,47.5,30.07,WNW,297,0.0,3.0,95,0.00,,,0.00,Wunderground v.1.15,2013-04-28 13:34:00,
2013-04-28 06:39:00,48.9,47.5,30.07,WNW,297,0.0,3.0,95,0.00,,,0.00,Wunderground v.1.15,2013-04-28 13:39:00,
2013-04-28 06:44:00,48.9,47.5,30.08,WNW,296,0.0,3.0,95,0.00,,,0.00,Wunderground v.1.15,2013-04-28 13:44:00,
2013-04-28 06:49:00,49.0,47.9,30.08,North,360,0.0,3.0,96,0.00,,,0.00,Wunderground v.1.15,2013-04-28 13:49:00,
2013-04-28 06:54:00,49.1,48.0,30.08,WNW,296,0.0,2.0,96,0.00,,,0.00,Wunderground v.1.15,2013-04-28 13:54:00,
2013-04-28 06:59:00,49.1,47.7,30.08,WSW,242,2.0,3.0,95,0.00,,,0.00,Wunderground v.1.15,2013-04-28 13:59:00,
2013-04-28 07:04:00,49.1,47.7,30.08,SSW,206,1.0,3.0,95,0.00,,,0.00,Wunderground v.1.15,2013-04-28 14:04:00,
2013-04-28 07:09:00,49.0,47.6,30.08,SSW,211,2.0,3.0,95,0.00,,,0.00,Wunderground v.1.15,2013-04-28 14:09:00,
2013-04-28 07:14:00,49.1,47.7,30.07,WSW,257,0.0,5.0,95,0.00,,,0.00,Wunderground v.1.15,2013-04-28 14:14:00,
2013-04-28 07:19:00,49.0,47.6,30.07,WSW,257,1.0,5.0,95,0.00,,,0.00,Wunderground v.1.15,2013-04-28 14:19:00,
2013-04-28 07:24:00,49.1,47.7,30.07,WSW,257,3.0,3.0,95,0.00,,,0.00,Wunderground v.1.15,2013-04-28 14:24:00,
2013-04-28 07:29:00,49.1,47.7,30.07,West,260,0.0,3.0,95,0.00,,,0.00,Wunderground v.1.15,2013-04-28 14:29:00,
2013-04-28 07:34:00,49.0,47.6,30.08,West,261,1.0,4.0,95,0.00,,,0.00,Wunderground v.1.15,2013-04-28 14:34:00,
2013-04-28 07:39:00,49.2,47.8,30.07,North,360,1.0,4.0,95,0.00,,,0.00,Wunderground v.1.15,2013-04-28 14:39:00,
2013-04-28 07:44:00,49.4,48.0,30.07,West,260,2.0,2.0,95,0.00,,,0.00,Wunderground v.1.15,2013-04-28 14:44:00,
2013-04-28 07:49:00,49.4,48.0,30.08,North,360,0.0,3.0,95,0.00,,,0.00,Wunderground v.1.15,2013-04-28 14:49:00,
2013-04-28 07:54:00,49.6,48.2,30.08,SSW,207,2.0,2.0,95,0.00,,,0.00,Wunderground v.1.15,2013-04-28 14:54:00,
2013-04-28 07:59:00,49.6,48.2,30.08,SSW,200,1.0,3.0,95,0.00,,,0.00,Wunderground v.1.15,2013-04-28 14:59:00,
2013-04-28 08:04:00,49.7,48.3,30.08,SSE,153,0.0,3.0,95,0.00,,,0.00,Wunderground v.1.15,2013-04-28 15:04:00,
2013-04-28 08:09:00,49.8,48.1,30.08,SSE,157,0.0,3.0,94,0.00,,,0.00,Wunderground v.1.15,2013-04-28 15:09:00,
2013-04-28 08:14:00,49.7,48.0,30.08,SSE,157,2.0,3.0,94,0.00,,,0.00,Wunderground v.1.15,2013-04-28 15:14:00,
2013-04-28 08:19:00,50.1,48.7,30.08,SSE,156,1.0,3.0,95,0.00,,,0.00,Wunderground v.1.15,2013-04-28 15:19:00,
2013-04-28 08:24:00,50.2,48.5,30.08,SE,135,0.0,4.0,94,0.00,,,0.00,Wunderground v.1.15,2013-04-28 15:24:00,
2013-04-28 08:29:00,50.5,48.8,30.08,SE,139,3.0,4.0,94,0.00,,,0.00,Wunderground v.1.15,2013-04-28 15:29:00,
2013-04-28 08:34:00,50.5,48.6,30.08,SE,134,0.0,3.0,93,0.00,,,0.00,Wunderground v.1.15,2013-04-28 15:34:00,
2013-04-28 08:39:00,50.8,48.8,30.08,SE,136,0.0,3.0,93,0.00,,,0.00,Wunderground v.1.15,2013-04-28 15:39:00,
2013-04-28 08:44:00,51.1,48.9,30.08,SE,137,0.0,2.0,92,0.00,,,0.00,Wunderground v.1.15,2013-04-28 15:44:00,
2013-04-28 08:49:00,51.3,48.8,30.08,SE,137,1.0,3.0,91,0.00,,,0.00,Wunderground v.1.15,2013-04-28 15:49:00,
2013-04-28 08:54:00,51.6,49.4,30.08,SE,137,0.0,2.0,92,0.00,,,0.00,Wunderground v.1.15,2013-04-28 15:54:00,
2013-04-28 08:59:00,52.4,49.6,30.08,SSE,154,0.0,3.0,90,0.00,,,0.00,Wunderground v.1.15,2013-04-28 15:59:00,
2013-04-28 09:04:00,53.2,50.0,30.08,SE,146,2.0,3.0,89,0.00,,,0.00,Wunderground v.1.15,2013-04-28 16:04:00,
2013-04-28 09:09:00,54.1,50.3,30.08,SSE,149,0.0,3.0,87,0.00,,,0.00,Wunderground v.1.15,2013-04-28 16:09:00,
2013-04-28 09:14:00,54.9,50.5,30.08,SE,144,0.0,3.0,85,0.00,,,0.00,Wunderground v.1.15,2013-04-28 16:14:00,
2013-04-28 09:19:00,55.9,50.8,30.08,SE,144,2.0,3.0,83,0.00,,,0.00,Wunderground v.1.15,2013-04-28 16:19:00,
2013-04-28 09:24:00,56.5,51.1,30.08,East,99,0.0,3.0,82,0.00,,,0.00,Wunderground v.1.15,2013-04-28 16:24:00,
2013-04-28 09:29:00,57.7,51.6,30.08,SSE,148,1.0,3.0,80,0.00,,,0.00,Wunderground v.1.15,2013-04-28 16:29:00,
2013-04-28 09:34:00,58.3,51.1,30.08,ESE,121,2.0,4.0,77,0.00,,,0.00,Wunderground v.1.15,2013-04-28 16:34:00,
2013-04-28 09:39:00,58.2,51.0,30.08,East,84,2.0,4.0,77,0.00,,,0.00,Wunderground v.1.15,2013-04-28 16:39:00,
2013-04-28 09:44:00,58.1,50.6,30.07,East,83,2.0,3.0,76,0.00,,,0.00,Wunderground v.1.15,2013-04-28 16:44:00,
2013-04-28 09:49:00,58.7,51.2,30.07,ESE,109,2.0,3.0,76,0.00,,,0.00,Wunderground v.1.15,2013-04-28 16:49:00,
2013-04-28 09:55:00,58.7,50.8,30.07,NE,54,0.0,3.0,75,0.00,,,0.00,Wunderground v.1.15,2013-04-28 16:55:00,
2013-04-28 10:00:00,59.6,51.3,30.07,SE,136,1.0,1.0,74,0.00,,,0.00,Wunderground v.1.15,2013-04-28 17:00:00,
2013-04-28 10:05:00,60.4,51.3,30.07,ESE,112,1.0,3.0,72,0.00,,,0.00,Wunderground v.1.15,2013-04-28 17:05:00,
2013-04-28 10:10:00,60.5,51.0,30.07,SE,145,0.0,1.0,71,0.00,,,0.00,Wunderground v.1.15,2013-04-28 17:10:00,
2013-04-28 10:15:00,61.6,52.1,30.07,ESE,116,2.0,4.0,71,0.00,,,0.00,Wunderground v.1.15,2013-04-28 17:15:00,
2013-04-28 10:20:00,62.5,52.2,30.06,SE,144,0.0,1.0,69,0.00,,,0.00,Wunderground v.1.15,2013-04-28 17:20:00,
2013-04-28 10:25:00,63.2,52.1,30.07,ESE,113,1.0,3.0,67,0.00,,,0.00,Wunderground v.1.15,2013-04-28 17:25:00,
2013-04-28 10:30:00,63.8,52.6,30.06,East,85,0.0,1.0,67,0.00,,,0.00,Wunderground v.1.15,2013-04-28 17:30:00,
2013-04-28 10:35:00,64.0,52.0,30.07,ENE,63,0.0,6.0,65,0.00,,,0.00,Wunderground v.1.15,2013-04-28 17:35:00,
2013-04-28 10:40:00,64.1,52.5,30.07,NE,51,1.0,2.0,66,0.00,,,0.00,Wunderground v.1.15,2013-04-28 17:40:00,
2013-04-28 10:45:00,64.0,51.6,30.06,NW,315,1.0,3.0,64,0.00,,,0.00,Wunderground v.1.15,2013-04-28 17:45:00,
2013-04-28 10:50:00,63.9,51.5,30.06,SE,136,0.0,2.0,64,0.00,,,0.00,Wunderground v.1.15,2013-04-28 17:50:00,
2013-04-28 10:55:00,64.7,52.7,30.06,NNE,33,1.0,4.0,65,0.00,,,0.00,Wunderground v.1.15,2013-04-28 17:55:00,
2013-04-28 11:00:00,65.1,52.6,30.06,NNE,17,3.0,3.0,64,0.00,,,0.00,Wunderground v.1.15,2013-04-28 18:00:00,
2013-04-28 11:06:00,65.4,52.0,30.06,SW,229,0.0,4.0,62,0.00,,,0.00,Wunderground v.1.15,2013-04-28 18:06:00,
2013-04-28 11:16:00,65.9,52.5,30.06,NW,326,2.0,4.0,62,0.00,,,0.00,Wunderground v.1.15,2013-04-28 18:16:00,
2013-04-28 11:21:00,67.4,53.0,30.06,SE,136,0.0,4.0,60,0.00,,,0.00,Wunderground v.1.15,2013-04-28 18:21:00,
2013-04-28 11:26:00,67.3,52.9,30.06,NE,49,3.0,4.0,60,0.00,,,0.00,Wunderground v.1.15,2013-04-28 18:26:00,
2013-04-28 11:31:00,67.5,53.1,30.06,East,87,1.0,5.0,60,0.00,,,0.00,Wunderground v.1.15,2013-04-28 18:31:00,
2013-04-28 11:36:00,67.5,53.1,30.06,ENE,64,1.0,2.0,60,0.00,,,0.00,Wunderground v.1.15,2013-04-28 18:36:00,
2013-04-28 11:41:00,68.0,53.6,30.06,East,80,2.0,4.0,60,0.00,,,0.00,Wunderground v.1.15,2013-04-28 18:41:00,
2013-04-28 11:46:00,68.6,53.7,30.06,NNE,30,0.0,3.0,59,0.00,,,0.00,Wunderground v.1.15,2013-04-28 18:46:00,
2013-04-28 11:51:00,69.0,54.1,30.05,ENE,59,2.0,3.0,59,0.00,,,0.00,Wunderground v.1.15,2013-04-28 18:51:00,
2013-04-28 11:56:00,69.1,53.2,30.05,NE,56,0.0,2.0,57,0.00,,,0.00,Wunderground v.1.15,2013-04-28 18:56:00,
2013-04-28 12:01:00,69.5,53.6,30.05,NE,43,0.0,4.0,57,0.00,,,0.00,Wunderground v.1.15,2013-04-28 19:01:00,
2013-04-28 12:06:00,70.4,54.0,30.05,East,92,2.0,5.0,56,0.00,,,0.00,Wunderground v.1.15,2013-04-28 19:06:00,
2013-04-28 12:11:00,70.5,54.5,30.05,NE,34,4.0,5.0,57,0.00,,,0.00,Wunderground v.1.15,2013-04-28 19:11:00,
2013-04-28 12:16:00,70.1,54.6,30.05,East,100,0.0,6.0,58,0.00,,,0.00,Wunderground v.1.15,2013-04-28 19:16:00,
2013-04-28 12:21:00,70.0,55.5,30.04,ENE,78,2.0,6.0,60,0.00,,,0.00,Wunderground v.1.15,2013-04-28 19:21:00,
2013-04-28 12:26:00,70.3,56.2,30.04,ENE,58,5.0,6.0,61,0.00,,,0.00,Wunderground v.1.15,2013-04-28 19:26:00,
2013-04-28 12:31:00,70.2,56.1,30.04,NE,38,5.0,5.0,61,0.00,,,0.00,Wunderground v.1.15,2013-04-28 19:31:00,
2013-04-28 12:37:00,71.1,56.5,30.03,ENE,59,0.0,5.0,60,0.00,,,0.00,Wunderground v.1.15,2013-04-28 19:37:00,
2013-04-28 12:42:00,72.1,56.0,30.03,ESE,110,4.0,5.0,57,0.00,,,0.00,Wunderground v.1.15,2013-04-28 19:42:00,
2013-04-28 12:47:00,72.5,56.9,30.03,NNE,26,0.0,5.0,58,0.00,,,0.00,Wunderground v.1.15,2013-04-28 19:47:00,
2013-04-28 12:52:00,72.6,55.5,30.02,ESE,115,0.0,2.0,55,0.00,,,0.00,Wunderground v.1.15,2013-04-28 19:52:00,
2013-04-28 12:57:00,73.1,56.5,30.02,ESE,111,0.0,2.0,56,0.00,,,0.00,Wunderground v.1.15,2013-04-28 19:57:00,
2013-04-28 13:02:00,74.6,56.9,30.02,ENE,72,1.0,3.0,54,0.00,,,0.00,Wunderground v.1.15,2013-04-28 20:02:00,
2013-04-28 13:07:00,75.5,56.6,30.02,NE,35,1.0,4.0,52,0.00,,,0.00,Wunderground v.1.15,2013-04-28 20:07:00,
2013-04-28 13:12:00,76.0,56.6,30.01,ESE,103,0.0,4.0,51,0.00,,,0.00,Wunderground v.1.15,2013-04-28 20:12:00,
2013-04-28 13:17:00,75.5,56.1,30.01,ENE,61,4.0,5.0,51,0.00,,,0.00,Wunderground v.1.15,2013-04-28 20:17:00,
2013-04-28 13:22:00,76.0,56.0,30.01,ESE,109,0.0,4.0,50,0.00,,,0.00,Wunderground v.1.15,2013-04-28 20:22:00,
2013-04-28 13:27:00,76.0,56.0,30.01,North,360,3.0,5.0,50,0.00,,,0.00,Wunderground v.1.15,2013-04-28 20:27:00,
2013-04-28 13:32:00,76.4,55.8,30.00,NE,36,1.0,4.0,49,0.00,,,0.00,Wunderground v.1.15,2013-04-28 20:32:00,
2013-04-28 13:37:00,76.9,55.7,30.00,ESE,111,1.0,4.0,48,0.00,,,0.00,Wunderground v.1.15,2013-04-28 20:37:00,
2013-04-28 13:42:00,77.0,56.4,30.00,NNE,31,0.0,3.0,49,0.00,,,0.00,Wunderground v.1.15,2013-04-28 20:42:00,
2013-04-28 13:47:00,76.6,56.0,30.00,ENE,59,2.0,6.0,49,0.00,,,0.00,Wunderground v.1.15,2013-04-28 20:47:00,
2013-04-28 13:52:00,77.0,56.4,29.99,ENE,57,0.0,4.0,49,0.00,,,0.00,Wunderground v.1.15,2013-04-28 20:52:00,
2013-04-28 13:57:00,77.6,56.4,29.99,NE,44,5.0,6.0,48,0.00,,,0.00,Wunderground v.1.15,2013-04-28 20:57:00,
2013-04-28 14:02:00,77.2,56.0,29.99,NNE,30,2.0,6.0,48,0.00,,,0.00,Wunderground v.1.15,2013-04-28 21:02:00,
2013-04-28 14:07:00,77.7,55.9,29.98,ESE,102,1.0,6.0,47,0.00,,,0.00,Wunderground v.1.15,2013-04-28 21:07:00,
2013-04-28 14:12:00,77.5,55.7,29.98,NE,46,6.0,6.0,47,0.00,,,0.00,Wunderground v.1.15,2013-04-28 21:12:00,
2013-04-28 14:17:00,76.2,55.1,29.98,ENE,68,2.0,7.0,48,0.00,,,0.00,Wunderground v.1.15,2013-04-28 21:17:00,
2013-04-28 14:22:00,76.0,54.9,29.98,ENE,60,4.0,9.0,48,0.00,,,0.00,Wunderground v.1.15,2013-04-28 21:22:00,
2013-04-28 14:27:00,76.1,55.0,29.98,NE,49,0.0,10.0,48,0.00,,,0.00,Wunderground v.1.15,2013-04-28 21:27:00,
2013-04-28 14:32:00,76.3,54.6,29.98,NE,42,3.0,9.0,47,0.00,,,0.00,Wunderground v.1.15,2013-04-28 21:32:00,
2013-04-28 14:37:00,76.4,54.7,29.98,NE,51,6.0,9.0,47,0.00,,,0.00,Wunderground v.1.15,2013-04-28 21:37:00,
2013-04-28 14:42:00,77.1,55.3,29.98,NW,304,0.0,6.0,47,0.00,,,0.00,Wunderground v.1.15,2013-04-28 21:42:00,
2013-04-28 14:47:00,77.1,54.1,29.97,NE,45,4.0,7.0,45,0.00,,,0.00,Wunderground v.1.15,2013-04-28 21:47:00,
2013-04-28 14:52:00,75.8,54.1,29.97,ENE,66,3.0,9.0,47,0.00,,,0.00,Wunderground v.1.15,2013-04-28 21:52:00,
2013-04-28 14:58:00,75.9,54.2,29.97,ENE,57,1.0,10.0,47,0.00,,,0.00,Wunderground v.1.15,2013-04-28 21:58:00,
2013-04-28 15:03:00,75.9,54.2,29.96,North,355,5.0,10.0,47,0.00,,,0.00,Wunderground v.1.15,2013-04-28 22:03:00,
2013-04-28 15:08:00,76.2,55.1,29.96,North,5,6.0,10.0,48,0.00,,,0.00,Wunderground v.1.15,2013-04-28 22:08:00,
2013-04-28 15:13:00,76.2,54.5,29.96,NNW,348,0.0,9.0,47,0.00,,,0.00,Wunderground v.1.15,2013-04-28 22:13:00,
2013-04-28 15:18:00,76.6,54.3,29.96,NNW,331,1.0,11.0,46,0.00,,,0.00,Wunderground v.1.15,2013-04-28 22:18:00,
2013-04-28 15:23:00,76.7,54.4,29.95,NNE,18,0.0,7.0,46,0.00,,,0.00,Wunderground v.1.15,2013-04-28 22:23:00,
2013-04-28 15:28:00,76.9,53.9,29.95,NNE,27,3.0,10.0,45,0.00,,,0.00,Wunderground v.1.15,2013-04-28 22:28:00,
2013-04-28 15:33:00,77.0,54.0,29.95,NNE,28,1.0,6.0,45,0.00,,,0.00,Wunderground v.1.15,2013-04-28 22:33:00,
2013-04-28 15:38:00,78.0,53.7,29.95,NE,36,3.0,6.0,43,0.00,,,0.00,Wunderground v.1.15,2013-04-28 22:38:00,
2013-04-28 15:43:00,78.8,54.4,29.95,North,350,4.0,5.0,43,0.00,,,0.00,Wunderground v.1.15,2013-04-28 22:43:00,
2013-04-28 15:48:00,79.5,53.7,29.94,NW,325,1.0,5.0,41,0.00,,,0.00,Wunderground v.1.15,2013-04-28 22:48:00,
2013-04-28 15:53:00,80.7,54.1,29.94,ENE,64,3.0,9.0,40,0.00,,,0.00,Wunderground v.1.15,2013-04-28 22:53:00,
2013-04-28 15:58:00,80.5,54.6,29.94,NNW,338,2.0,9.0,41,0.00,,,0.00,Wunderground v.1.15,2013-04-28 22:58:00,
2013-04-28 16:03:00,81.3,54.0,29.94,NNW,347,1.0,4.0,39,0.00,,,0.00,Wunderground v.1.15,2013-04-28 23:03:00,
2013-04-28 16:08:00,81.4,54.1,29.93,NE,41,4.0,6.0,39,0.00,,,0.00,Wunderground v.1.15,2013-04-28 23:08:00,
2013-04-28 16:13:00,80.7,54.1,29.93,North,9,3.0,4.0,40,0.00,,,0.00,Wunderground v.1.15,2013-04-28 23:13:00,
2013-04-28 16:18:00,81.2,54.6,29.93,NNW,333,0.0,6.0,40,0.00,,,0.00,Wunderground v.1.15,2013-04-28 23:18:00,
2013-04-28 16:23:00,81.9,54.5,29.93,ENE,59,3.0,4.0,39,0.00,,,0.00,Wunderground v.1.15,2013-04-28 23:23:00,
2013-04-28 16:28:00,81.6,54.2,29.92,NE,53,3.0,5.0,39,0.00,,,0.00,Wunderground v.1.15,2013-04-28 23:28:00,
2013-04-28 16:33:00,81.7,54.3,29.92,ENE,65,1.0,5.0,39,0.00,,,0.00,Wunderground v.1.15,2013-04-28 23:33:00,
2013-04-28 16:38:00,82.0,54.6,29.92,ENE,71,0.0,5.0,39,0.00,,,0.00,Wunderground v.1.15,2013-04-28 23:38:00,
2013-04-28 16:43:00,82.4,54.2,29.92,NE,49,0.0,2.0,38,0.00,,,0.00,Wunderground v.1.15,2013-04-28 23:43:00,
2013-04-28 16:48:00,82.6,55.1,29.92,NE,49,2.0,3.0,39,0.00,,,0.00,Wunderground v.1.15,2013-04-28 23:48:00,
2013-04-28 16:53:00,82.7,54.5,29.92,NE,46,0.0,4.0,38,0.00,,,0.00,Wunderground v.1.15,2013-04-28 23:53:00,
2013-04-28 16:58:00,82.4,54.2,29.91,NNE,24,1.0,10.0,38,0.00,,,0.00,Wunderground v.1.15,2013-04-28 23:58:00,
2013-04-28 17:03:00,82.3,54.2,29.91,NNE,27,3.0,4.0,38,0.00,,,0.00,Wunderground v.1.15,2013-04-29 00:03:00,
2013-04-28 17:08:00,82.0,53.2,29.91,ENE,58,2.0,6.0,37,0.00,,,0.00,Wunderground v.1.15,2013-04-29 00:08:00,
2013-04-28 17:13:00,81.7,54.3,29.91,NNW,348,0.0,3.0,39,0.00,,,0.00,Wunderground v.1.15,2013-04-29 00:13:00,
2013-04-28 17:18:00,81.7,52.9,29.91,NE,52,0.0,6.0,37,0.00,,,0.00,Wunderground v.1.15,2013-04-29 00:18:00,
2013-04-28 17:23:00,81.7,53.6,29.91,NNW,331,0.0,5.0,38,0.00,,,0.00,Wunderground v.1.15,2013-04-29 00:23:00,
2013-04-28 17:28:00,81.6,54.2,29.91,NNW,347,1.0,5.0,39,0.00,,,0.00,Wunderground v.1.15,2013-04-29 00:28:00,
2013-04-28 17:33:00,81.7,54.3,29.91,NE,49,1.0,4.0,39,0.00,,,0.00,Wunderground v.1.15,2013-04-29 00:33:00,
2013-04-28 17:38:00,82.1,54.7,29.91,ENE,59,3.0,4.0,39,0.00,,,0.00,Wunderground v.1.15,2013-04-29 00:38:00,
2013-04-28 17:43:00,82.3,54.9,29.91,NNE,15,3.0,5.0,39,0.00,,,0.00,Wunderground v.1.15,2013-04-29 00:43:00,
2013-04-28 17:48:00,82.8,54.6,29.91,NE,49,4.0,7.0,38,0.00,,,0.00,Wunderground v.1.15,2013-04-29 00:48:00,
2013-04-28 17:53:00,82.3,54.2,29.90,North,355,0.0,5.0,38,0.00,,,0.00,Wunderground v.1.15,2013-04-29 00:53:00,
2013-04-28 17:59:00,82.3,54.2,29.90,North,355,1.0,6.0,38,0.00,,,0.00,Wunderground v.1.15,2013-04-29 00:59:00,
2013-04-28 18:03:00,82.4,55.0,29.90,NNE,23,0.0,4.0,39,0.00,,,0.00,Wunderground v.1.15,2013-04-29 01:03:00,
2013-04-28 18:09:00,82.9,55.4,29.90,NNW,346,0.0,4.0,39,0.00,,,0.00,Wunderground v.1.15,2013-04-29 01:09:00,
2013-04-28 18:14:00,83.3,56.5,29.90,NNW,344,1.0,4.0,40,0.00,,,0.00,Wunderground v.1.15,2013-04-29 01:14:00,
2013-04-28 18:19:00,83.0,56.9,29.90,NNW,327,2.0,4.0,41,0.00,,,0.00,Wunderground v.1.15,2013-04-29 01:19:00,
2013-04-28 18:24:00,82.1,54.7,29.90,WNW,303,0.0,7.0,39,0.00,,,0.00,Wunderground v.1.15,2013-04-29 01:24:00,
2013-04-28 18:29:00,80.8,54.2,29.90,NW,314,9.0,12.0,40,0.00,,,0.00,Wunderground v.1.15,2013-04-29 01:29:00,
2013-04-28 18:34:00,80.1,53.6,29.90,NW,326,7.0,11.0,40,0.00,,,0.00,Wunderground v.1.15,2013-04-29 01:34:00,
2013-04-28 18:39:00,80.1,53.6,29.90,North,355,2.0,11.0,40,0.00,,,0.00,Wunderground v.1.15,2013-04-29 01:39:00,
2013-04-28 18:44:00,79.6,53.1,29.90,NW,307,8.0,10.0,40,0.00,,,0.00,Wunderground v.1.15,2013-04-29 01:44:00,
2013-04-28 18:49:00,79.1,52.7,29.90,NNW,327,9.0,10.0,40,0.00,,,0.00,Wunderground v.1.15,2013-04-29 01:49:00,
2013-04-28 18:54:00,78.2,51.9,29.90,NW,307,4.0,11.0,40,0.00,,,0.00,Wunderground v.1.15,2013-04-29 01:54:00,
2013-04-28 18:59:00,77.8,50.9,29.90,NNW,345,6.0,11.0,39,0.00,,,0.00,Wunderground v.1.15,2013-04-29 01:59:00,
2013-04-28 19:04:00,77.4,50.5,29.90,NW,304,11.0,13.0,39,0.00,,,0.00,Wunderground v.1.15,2013-04-29 02:04:00,
2013-04-28 19:09:00,77.0,50.8,29.90,NNW,331,0.0,13.0,40,0.00,,,0.00,Wunderground v.1.15,2013-04-29 02:09:00,
2013-04-28 19:14:00,76.7,51.2,29.89,NNW,328,1.0,5.0,41,0.00,,,0.00,Wunderground v.1.15,2013-04-29 02:14:00,
2013-04-28 19:18:00,76.7,51.2,29.89,NNW,327,2.0,5.0,41,0.00,,,0.00,Wunderground v.1.15,2013-04-29 02:18:00,
2013-04-28 19:36:00,76.1,52.0,29.89,NNW,332,0.0,0.0,43,0.00,,,0.00,Wunderground v.1.15,2013-04-29 02:36:00,
2013-04-28 19:41:00,75.6,52.1,29.90,NNE,14,0.0,3.0,44,0.00,,,0.00,Wunderground v.1.15,2013-04-29 02:41:00,
2013-04-28 19:46:00,75.0,52.2,29.90,NW,323,3.0,5.0,45,0.00,,,0.00,Wunderground v.1.15,2013-04-29 02:46:00,
2013-04-28 19:51:00,74.5,52.4,29.90,NNW,336,0.0,5.0,46,0.00,,,0.00,Wunderground v.1.15,2013-04-29 02:51:00,
2013-04-28 19:52:00,74.1,52.6,29.90,NNW,336,2.0,5.0,47,0.00,,,0.00,Wunderground v.1.15,2013-04-29 02:52:00,
2013-04-28 20:09:00,72.3,52.6,29.90,NNW,336,0.0,0.0,50,0.00,,,0.00,Wunderground v.1.15,2013-04-29 03:09:00,
2013-04-28 20:14:00,71.6,52.5,29.90,NNW,336,0.0,2.0,51,0.00,,,0.00,Wunderground v.1.15,2013-04-29 03:14:00,
2013-04-28 20:19:00,71.2,52.1,29.90,NNW,336,0.0,0.0,51,0.00,,,0.00,Wunderground v.1.15,2013-04-29 03:19:00,
2013-04-28 20:24:00,70.9,51.9,29.90,NNW,336,0.0,0.0,51,0.00,,,0.00,Wunderground v.1.15,2013-04-29 03:24:00,
2013-04-28 20:29:00,70.2,52.8,29.90,NNW,334,0.0,0.0,54,0.00,,,0.00,Wunderground v.1.15,2013-04-29 03:29:00,
2013-04-28 20:34:00,69.8,52.4,29.90,NNW,336,0.0,0.0,54,0.00,,,0.00,Wunderground v.1.15,2013-04-29 03:34:00,
2013-04-28 20:39:00,69.5,52.6,29.90,NNW,336,0.0,0.0,55,0.00,,,0.00,Wunderground v.1.15,2013-04-29 03:39:00,
2013-04-28 20:44:00,69.2,52.3,29.91,NNW,336,0.0,0.0,55,0.00,,,0.00,Wunderground v.1.15,2013-04-29 03:44:00,
2013-04-28 20:49:00,68.6,52.3,29.91,NNW,336,0.0,0.0,56,0.00,,,0.00,Wunderground v.1.15,2013-04-29 03:49:00,
2013-04-28 20:54:00,68.2,52.4,29.91,NNW,336,0.0,0.0,57,0.00,,,0.00,Wunderground v.1.15,2013-04-29 03:54:00,
2013-04-28 20:59:00,68.0,52.7,29.91,NNW,336,0.0,0.0,58,0.00,,,0.00,Wunderground v.1.15,2013-04-29 03:59:00,
2013-04-28 21:01:00,67.9,53.0,29.91,NNW,336,0.0,0.0,59,0.00,,,0.00,Wunderground v.1.15,2013-04-29 04:01:00,
2013-04-28 21:06:00,67.6,52.8,29.91,NNW,336,0.0,1.0,59,0.00,,,0.00,Wunderground v.1.15,2013-04-29 04:06:00,
2013-04-28 21:11:00,67.3,52.9,29.91,NNW,336,0.0,0.0,60,0.00,,,0.00,Wunderground v.1.15,2013-04-29 04:11:00,
2013-04-28 21:16:00,66.9,53.0,29.91,NNW,336,0.0,0.0,61,0.00,,,0.00,Wunderground v.1.15,2013-04-29 04:16:00,
2013-04-28 21:22:00,66.6,53.2,29.91,NNW,336,0.0,0.0,62,0.00,,,0.00,Wunderground v.1.15,2013-04-29 04:22:00,
2013-04-28 21:27:00,66.0,53.0,29.92,NNW,336,0.0,0.0,63,0.00,,,0.00,Wunderground v.1.15,2013-04-29 04:27:00,
2013-04-28 21:32:00,65.7,53.2,29.92,NNW,335,0.0,0.0,64,0.00,,,0.00,Wunderground v.1.15,2013-04-29 04:32:00,
2013-04-28 21:37:00,65.3,53.2,29.92,NNW,334,0.0,0.0,65,0.00,,,0.00,Wunderground v.1.15,2013-04-29 04:37:00,
2013-04-28 21:42:00,65.0,52.9,29.92,NNW,336,0.0,0.0,65,0.00,,,0.00,Wunderground v.1.15,2013-04-29 04:42:00,
2013-04-28 21:47:00,65.0,52.9,29.92,NNW,336,0.0,0.0,65,0.00,,,0.00,Wunderground v.1.15,2013-04-29 04:47:00,
2013-04-28 21:52:00,64.8,53.2,29.92,NNW,336,0.0,0.0,66,0.00,,,0.00,Wunderground v.1.15,2013-04-29 04:52:00,
2013-04-28 21:57:00,64.5,52.9,29.92,NNW,336,0.0,0.0,66,0.00,,,0.00,Wunderground v.1.15,2013-04-29 04:57:00,
2013-04-28 22:02:00,64.2,52.6,29.92,NNW,336,0.0,0.0,66,0.00,,,0.00,Wunderground v.1.15,2013-04-29 05:02:00,
2013-04-28 22:07:00,64.0,52.8,29.92,NNW,336,0.0,0.0,67,0.00,,,0.00,Wunderground v.1.15,2013-04-29 05:07:00,
2013-04-28 22:12:00,63.8,53.0,29.92,NNW,336,0.0,0.0,68,0.00,,,0.00,Wunderground v.1.15,2013-04-29 05:12:00,
2013-04-28 22:17:00,63.6,53.2,29.92,NNW,336,0.0,1.0,69,0.00,,,0.00,Wunderground v.1.15,2013-04-29 05:17:00,
2013-04-28 22:23:00,63.6,53.2,29.91,NNW,336,0.0,0.0,69,0.00,,,0.00,Wunderground v.1.15,2013-04-29 05:23:00,
2013-04-28 22:29:00,63.4,53.0,29.91,NNW,335,0.0,0.0,69,0.00,,,0.00,Wunderground v.1.15,2013-04-29 05:29:00,
2013-04-28 22:34:00,63.0,52.7,29.91,NNW,336,0.0,0.0,69,0.00,,,0.00,Wunderground v.1.15,2013-04-29 05:34:00,
2013-04-28 22:39:00,62.8,52.9,29.91,NNW,334,0.0,0.0,70,0.00,,,0.00,Wunderground v.1.15,2013-04-29 05:39:00,
2013-04-28 22:44:00,62.6,53.1,29.91,NNW,336,0.0,0.0,71,0.00,,,0.00,Wunderground v.1.15,2013-04-29 05:44:00,
2013-04-28 22:49:00,62.4,52.9,29.91,NNW,336,0.0,0.0,71,0.00,,,0.00,Wunderground v.1.15,2013-04-29 05:49:00,
2013-04-28 22:54:00,62.1,53.0,29.91,NNW,336,0.0,0.0,72,0.00,,,0.00,Wunderground v.1.15,2013-04-29 05:54:00,
2013-04-28 22:59:00,61.8,52.7,29.91,NNW,336,0.0,0.0,72,0.00,,,0.00,Wunderground v.1.15,2013-04-29 05:59:00,
2013-04-28 23:04:00,61.5,52.8,29.91,NNW,336,0.0,0.0,73,0.00,,,0.00,Wunderground v.1.15,2013-04-29 06:04:00,
2013-04-28 23:09:00,61.2,52.8,29.91,NNW,336,0.0,0.0,74,0.00,,,0.00,Wunderground v.1.15,2013-04-29 06:09:00,
2013-04-28 23:14:00,61.0,52.7,29.91,NNW,336,0.0,0.0,74,0.00,,,0.00,Wunderground v.1.15,2013-04-29 06:14:00,
2013-04-28 23:19:00,61.0,52.7,29.91,NNW,336,0.0,0.0,74,0.00,,,0.00,Wunderground v.1.15,2013-04-29 06:19:00,
2013-04-28 23:24:00,61.0,52.7,29.91,NNW,335,0.0,0.0,74,0.00,,,0.00,Wunderground v.1.15,2013-04-29 06:24:00,
2013-04-28 23:29:00,60.9,52.2,29.91,NNW,336,0.0,0.0,73,0.00,,,0.00,Wunderground v.1.15,2013-04-29 06:29:00,
2013-04-28 23:34:00,60.9,52.6,29.91,NNW,336,0.0,0.0,74,0.00,,,0.00,Wunderground v.1.15,2013-04-29 06:34:00,
2013-04-28 23:39:00,60.8,52.5,29.91,NNW,334,0.0,0.0,74,0.00,,,0.00,Wunderground v.1.15,2013-04-29 06:39:00,
2013-04-28 23:44:00,60.6,52.3,29.91,NNW,336,0.0,0.0,74,0.00,,,0.00,Wunderground v.1.15,2013-04-29 06:44:00,
2013-04-28 23:49:00,60.3,52.3,29.91,NNW,336,0.0,0.0,75,0.00,,,0.00,Wunderground v.1.15,2013-04-29 06:49:00,
2013-04-28 23:54:00,60.0,52.1,29.90,NNW,335,0.0,0.0,75,0.00,,,0.00,Wunderground v.1.15,2013-04-29 06:54:00,
2013-04-28 23:59:00,59.9,52.0,29.91,NNW,336,0.0,0.0,75,0.00,,,0.00,Wunderground v.1.15,2013-04-29 06:59:00,